Location: Zagreb
(45.8000°N, 16.0000°E)
Time: 19:17:53
(UTC+02:00)

A-11 Canister half - Pass Details

Date: 09 August 2022
Orbit: 1524 x 1684 km, 47.3° (Epoch: 05 October)

Event Time Altitude Azimuth Distance (km) Brightness Sun altitude
Rises 11:27:32 0° 285° (WNW) 4,938 11.4 54.1°
Reaches altitude 10° 11:30:43 10° 285° (WNW) 3,942 11.0 54.5°
Maximum altitude 11:40:53 85° 199° (SSW) 1,662 10.4 55.6°
Drops below altitude 10° 11:50:44 10° 113° (ESE) 3,832 11.7 56.5°
Sets 11:53:47 0° 112° (ESE) 4,795 12.0 56.8°
